Date String (YYYY-MM-DD hh:mm:ss) UTC,Instrument flags,Ambient pressure (hPa),Sample flow (lpm),Bypass flow (lpm),Sample temperature (°C),Ambient temperature (°C),ASC tube jacket temperature (°C),LED temperature (°C),Box temperature (°C),Sample RH (%),Span deviation,Mass concentration (μg/m³),Mass concentration (μg/m³),Mass concentration (μg/m³)
DateTimeUTC,F1_M11,P_M11,Q1_M11,Q2_M11,T1_M11,T2_M11,T3_M11,T4_M11,T5_M11,U1_M11,ZSPAN_M11,X0_M11,X2_M11,X1_M11
2023-04-13 10:00:00,,0818.3,5.01,0.00,29.1,27.5,00.0,37.5,30.7,10.6,0000.0,0016.83,0004.14,0002.30
2023-04-13 10:01:00,,0818.3,5.01,0.00,29.1,27.5,00.0,37.5,30.7,10.7,0000.0,0016.57,0004.15,0002.30
2023-04-13 10:02:00,,0818.3,5.01,0.00,29.1,27.5,00.0,37.5,30.7,10.6,0000.0,0016.71,0004.16,0002.31
2023-04-13 10:03:00,,0818.2,4.99,0.00,29.1,27.5,00.0,37.5,30.7,10.6,0000.0,0017.37,0004.15,0002.32
2023-04-13 10:04:00,,0818.2,4.99,0.00,29.1,27.5,00.0,37.5,30.7,10.6,0000.0,0017.31,0004.19,0002.32
2023-04-13 10:05:00,,0818.2,5.00,0.00,29.1,27.5,00.0,37.5,30.7,10.6,0000.0,0015.57,0004.19,0002.33
2023-04-13 10:06:00,,0818.2,5.00,0.00,29.1,27.5,00.0,37.5,30.7,10.5,0000.0,0015.36,0004.18,0002.32
2023-04-13 10:07:00,,0818.2,5.00,0.00,29.1,27.5,00.0,37.5,30.7,10.4,0000.0,0015.13,0004.21,0002.32
2023-04-13 10:08:00,,0818.2,5.00,0.00,29.1,27.5,00.0,37.5,30.7,10.4,0000.0,0015.32,0004.29,0002.34
2023-04-13 10:09:00,,0818.2,5.01,0.00,29.1,27.5,00.0,37.5,30.7,10.4,0000.0,0014.48,0004.31,0002.36
2023-04-13 10:10:00,,0818.2,5.01,0.00,29.1,27.5,00.0,37.5,30.7,10.4,0000.0,0014.08,0004.29,0002.36
2023-04-13 10:11:00,,0818.2,5.01,0.00,29.2,27.6,00.0,37.5,30.7,10.4,0000.0,0014.85,0004.30,0002.37
2023-04-13 10:12:00,,0818.1,4.98,0.00,29.2,27.6,00.0,37.5,30.7,10.4,0000.0,0015.92,0004.33,0002.38
2023-04-13 10:13:00,,0818.1,4.99,0.00,29.2,27.6,00.0,37.5,30.7,10.4,0000.0,0015.87,0004.35,0002.38
2023-04-13 10:14:00,,0818.1,4.98,0.00,29.2,27.6,00.0,37.5,30.7,10.4,0000.0,0015.40,0004.35,0002.38
2023-04-13 10:15:00,,0818.1,5.01,0.00,29.2,27.6,00.0,37.5,30.7,10.3,0000.0,0014.99,0004.31,0002.36
2023-04-13 10:16:00,,0818.1,5.01,0.00,29.2,27.6,00.0,37.5,30.7,10.1,0000.0,0015.16,0004.31,0002.34
2023-04-13 10:17:00,,0818.1,5.00,0.00,29.2,27.6,00.0,37.5,30.8,10.1,0000.0,0014.99,0004.38,0002.35
2023-04-13 10:18:00,,0818.1,5.00,0.00,29.2,27.6,00.0,37.5,30.8,10.0,0000.0,0015.28,0004.43,0002.35
2023-04-13 10:19:00,,0818.1,5.00,0.00,29.2,27.6,00.0,37.6,30.7,10.0,0000.0,0014.83,0004.44,0002.33
2023-04-13 10:20:00,,0818.1,5.00,0.00,29.2,27.6,00.0,37.6,30.7,09.9,0000.0,0014.75,0004.44,0002.31
2023-04-13 10:21:00,,0818.1,5.00,0.00,29.2,27.6,00.0,37.6,30.7,10.0,0000.0,0014.71,0004.38,0002.31
2023-04-13 10:22:00,,0818.1,5.00,0.00,29.2,27.6,00.0,37.6,30.7,10.0,0000.0,0013.91,0004.36,0002.30
2023-04-13 10:23:00,,0818.1,5.00,0.00,29.2,27.6,00.0,37.6,30.8,09.9,0000.0,0013.15,0004.42,0002.30
2023-04-13 10:24:00,,0818.1,5.00,0.00,29.2,27.6,00.0,37.6,30.8,09.9,0000.0,0013.00,0004.43,0002.30
2023-04-13 10:25:00,,0818.2,4.99,0.00,29.2,27.6,00.0,37.6,30.8,10.0,0000.0,0012.84,0004.42,0002.31
2023-04-13 10:26:00,,0818.1,5.01,0.00,29.2,27.6,00.0,37.6,30.8,10.0,0000.0,0012.86,0004.40,0002.32
2023-04-13 10:27:00,,0818.1,5.00,0.00,29.2,27.6,00.0,37.6,30.8,10.1,0000.0,0012.77,0004.37,0002.33
2023-04-13 10:28:00,,0818.1,5.00,0.00,29.2,27.6,00.0,37.6,30.8,10.2,0000.0,0012.57,0004.31,0002.33
2023-04-13 10:29:00,,0818.1,5.00,0.00,29.2,27.6,00.0,37.6,30.8,10.4,0000.0,0012.06,0004.25,0002.34
2023-04-13 10:30:00,,0818.1,5.00,0.00,29.2,27.6,00.0,37.6,30.8,10.2,0000.0,0011.64,0004.16,0002.34
2023-04-13 10:31:00,,0818.1,5.01,0.00,29.2,27.6,00.0,37.6,30.8,10.2,0000.0,0012.75,0004.19,0002.36
2023-04-13 10:32:00,,0818.1,5.00,0.00,29.2,27.6,00.0,37.6,30.8,10.1,0000.0,0012.83,0004.25,0002.37
2023-04-13 10:33:00,,0818.1,5.00,0.00,29.2,27.6,00.0,37.6,30.7,10.1,0000.0,0013.59,0004.30,0002.39
2023-04-13 10:34:00,,0818.0,5.00,0.00,29.2,27.6,00.0,37.6,30.7,10.2,0000.0,0013.71,0004.30,0002.41
2023-04-13 10:35:00,,0818.1,5.00,0.00,29.2,27.6,00.0,37.6,30.7,10.2,0000.0,0013.92,0004.33,0002.41
2023-04-13 10:36:00,,0818.1,5.00,0.00,29.2,27.5,00.0,37.6,30.7,10.2,0000.0,0013.63,0004.29,0002.38
2023-04-13 10:37:00,,0818.1,5.00,0.00,29.2,27.5,00.0,37.6,30.7,10.3,0000.0,0013.55,0004.33,0002.37
2023-04-13 10:38:00,,0818.0,5.00,0.00,29.2,27.5,00.0,37.6,30.7,10.2,0000.0,0013.04,0004.35,0002.38
2023-04-13 10:39:00,,0818.0,5.00,0.00,29.2,27.5,00.0,37.6,30.7,10.2,0000.0,0012.75,0004.37,0002.38
2023-04-13 10:40:00,,0818.0,5.01,0.00,29.2,27.5,00.0,37.6,30.7,10.0,0000.0,0012.77,0004.37,0002.39
2023-04-13 10:41:00,,0818.0,5.00,0.00,29.2,27.5,00.0,37.6,30.7,09.9,0000.0,0013.49,0004.46,0002.40
2023-04-13 10:42:00,,0818.1,5.00,0.00,29.2,27.5,00.0,37.5,30.7,09.6,0000.0,0013.16,0004.50,0002.40
2023-04-13 10:43:00,,0818.1,5.00,0.00,29.1,27.5,00.0,37.5,30.7,10.3,0000.0,0013.76,0004.58,0002.41
2023-04-13 10:44:00,,0818.1,5.00,0.00,29.1,27.4,00.0,37.5,30.6,10.4,0000.0,0012.98,0004.58,0002.41
2023-04-13 10:45:00,,0818.0,5.01,0.00,29.1,27.4,00.0,37.5,30.6,10.4,0000.0,0012.96,0004.57,0002.39
2023-04-13 10:46:00,,0818.0,5.01,0.00,29.1,27.3,00.0,37.5,30.5,10.4,0000.0,0012.81,0004.54,0002.38
2023-04-13 10:47:00,,0818.0,5.01,0.00,29.0,27.3,00.0,37.5,30.5,10.4,0000.0,0012.96,0004.55,0002.42
2023-04-13 10:48:00,,0818.0,4.99,0.00,29.0,27.2,00.0,37.5,30.5,10.3,0000.0,0013.36,0004.52,0002.43
2023-04-13 10:49:00,,0818.0,4.99,0.00,29.0,27.2,00.0,37.5,30.4,10.3,0000.0,0014.49,0004.51,0002.43
2023-04-13 10:50:00,,0818.0,4.99,0.00,29.0,27.2,00.0,37.5,30.4,10.4,0000.0,0014.53,0004.53,0002.44
2023-04-13 10:51:00,,0818.0,5.00,0.00,29.0,27.2,00.0,37.5,30.4,10.3,0000.0,0014.59,0004.55,0002.45
2023-04-13 10:52:00,,0818.0,5.00,0.00,28.9,27.2,00.0,37.4,30.4,10.4,0000.0,0014.48,0004.52,0002.44
2023-04-13 10:53:00,,0818.0,5.01,0.00,28.9,27.1,00.0,37.4,30.3,10.4,0000.0,0013.46,0004.41,0002.43
2023-04-13 10:54:00,,0818.0,5.00,0.00,28.9,27.1,00.0,37.4,30.3,10.6,0000.0,0012.78,0004.30,0002.45
2023-04-13 10:55:00,,0818.0,5.00,0.00,28.9,27.1,00.0,37.4,30.4,10.6,0000.0,0013.56,0004.28,0002.45
2023-04-13 10:56:00,,0818.0,5.00,0.00,28.9,27.1,00.0,37.4,30.4,10.5,0000.0,0013.72,0004.29,0002.46
2023-04-13 10:57:00,,0818.0,5.00,0.00,28.9,27.1,00.0,37.4,30.4,10.2,0000.0,0013.93,0004.33,0002.48
2023-04-13 10:58:00,,0818.0,4.99,0.00,28.9,27.1,00.0,37.4,30.4,10.2,0000.0,0014.31,0004.38,0002.47
2023-04-13 10:59:00,,0818.0,5.00,0.00,28.9,27.1,00.0,37.4,30.3,10.8,0000.0,0014.63,0004.47,0002.47
